Year,Month,Day,Hour,Minute,Value (Times are PST for temperature in C)
2015,06,29,00,00,18.30
2015,06,29,00,01,18.20
2015,06,29,00,02,18.20
2015,06,29,00,03,18.20
2015,06,29,00,04,18.20
2015,06,29,00,05,18.20
2015,06,29,00,06,18.20
2015,06,29,00,07,18.20
2015,06,29,00,08,18.20
2015,06,29,00,09,18.20
2015,06,29,00,10,18.20
2015,06,29,00,11,18.20
2015,06,29,00,12,18.20
2015,06,29,00,13,18.20
2015,06,29,00,14,18.20
2015,06,29,00,15,18.20
2015,06,29,00,16,18.30
2015,06,29,00,17,18.30
2015,06,29,00,18,18.30
2015,06,29,00,19,18.30
2015,06,29,00,20,18.30
2015,06,29,00,21,18.30
2015,06,29,00,22,18.40
2015,06,29,00,23,18.40
2015,06,29,00,24,18.40
2015,06,29,00,25,18.40
2015,06,29,00,26,18.40
2015,06,29,00,27,18.50
2015,06,29,00,28,18.50
2015,06,29,00,29,18.50
2015,06,29,00,30,18.50
2015,06,29,00,31,18.50
2015,06,29,00,32,18.60
2015,06,29,00,33,18.60
2015,06,29,00,34,18.60
2015,06,29,00,35,18.60
2015,06,29,00,36,18.60
2015,06,29,00,37,18.60
2015,06,29,00,38,18.60
2015,06,29,00,39,18.60
2015,06,29,00,40,18.70
2015,06,29,00,41,18.70
2015,06,29,00,42,18.80
2015,06,29,00,43,18.80
2015,06,29,00,44,18.80
2015,06,29,00,45,18.80
2015,06,29,00,46,18.80
2015,06,29,00,47,18.90
2015,06,29,00,48,18.90
2015,06,29,00,49,18.90
2015,06,29,00,50,18.90
2015,06,29,00,51,19.00
2015,06,29,00,52,19.00
2015,06,29,00,53,19.00
2015,06,29,00,54,19.00
2015,06,29,00,55,19.00
2015,06,29,00,56,19.00
2015,06,29,00,57,19.00
2015,06,29,00,58,19.10
2015,06,29,00,59,19.10
2015,06,29,01,00,19.10
2015,06,29,01,01,19.10
2015,06,29,01,02,19.10
2015,06,29,01,03,19.20
2015,06,29,01,04,19.20
2015,06,29,01,05,19.20
2015,06,29,01,06,19.30
2015,06,29,01,07,19.40
2015,06,29,01,08,19.40
2015,06,29,01,09,19.50
2015,06,29,01,10,19.50
2015,06,29,01,11,19.60
2015,06,29,01,12,19.60
2015,06,29,01,13,19.70
2015,06,29,01,14,19.70
2015,06,29,01,15,19.80
2015,06,29,01,16,19.80
2015,06,29,01,17,19.90
2015,06,29,01,18,19.90
2015,06,29,01,19,19.90
2015,06,29,01,20,19.90
2015,06,29,01,21,20.00
2015,06,29,01,22,20.00
2015,06,29,01,23,20.00
2015,06,29,01,24,20.00
2015,06,29,01,25,20.00
2015,06,29,01,26,20.10
2015,06,29,01,27,20.10
2015,06,29,01,28,20.20
2015,06,29,01,29,20.20
2015,06,29,01,30,20.20
2015,06,29,01,31,20.30
2015,06,29,01,32,20.30
2015,06,29,01,33,20.30
2015,06,29,01,34,20.30
2015,06,29,01,35,20.40
2015,06,29,01,36,20.40
2015,06,29,01,37,20.40
2015,06,29,01,38,20.50
2015,06,29,01,39,20.50
2015,06,29,01,40,20.50
2015,06,29,01,41,20.50
2015,06,29,01,42,20.60
2015,06,29,01,43,20.60
2015,06,29,01,44,20.60
2015,06,29,01,45,20.60
2015,06,29,01,46,20.60
2015,06,29,01,47,20.60
2015,06,29,01,48,20.60
2015,06,29,01,49,20.60
2015,06,29,01,50,20.60
2015,06,29,01,51,20.60
2015,06,29,01,52,20.60
2015,06,29,01,53,20.60
2015,06,29,01,54,20.60
2015,06,29,01,55,20.60
2015,06,29,01,56,20.70
2015,06,29,01,57,20.60
2015,06,29,01,58,20.60
2015,06,29,01,59,20.60
2015,06,29,02,00,20.60
2015,06,29,02,01,20.60
2015,06,29,02,02,20.60
2015,06,29,02,03,20.60
2015,06,29,02,04,20.50
2015,06,29,02,05,20.50
2015,06,29,02,06,20.40
2015,06,29,02,07,20.40
2015,06,29,02,08,20.30
2015,06,29,02,09,20.30
2015,06,29,02,10,20.20
2015,06,29,02,11,20.20
2015,06,29,02,12,20.10
2015,06,29,02,13,20.10
2015,06,29,02,14,20.00
2015,06,29,02,15,20.00
2015,06,29,02,16,20.00
2015,06,29,02,17,19.90
2015,06,29,02,18,19.90
2015,06,29,02,19,19.90
2015,06,29,02,20,19.90
2015,06,29,02,21,19.90
2015,06,29,02,22,19.90
2015,06,29,02,23,20.00
2015,06,29,02,24,20.00
2015,06,29,02,25,20.00
2015,06,29,02,26,20.00
2015,06,29,02,27,20.00
2015,06,29,02,28,20.00
2015,06,29,02,29,20.00
2015,06,29,02,30,19.90
2015,06,29,02,31,19.90
2015,06,29,02,32,19.90
2015,06,29,02,33,19.90
2015,06,29,02,34,19.90
2015,06,29,02,35,19.90
2015,06,29,02,36,19.80
2015,06,29,02,37,19.80
2015,06,29,02,38,19.80
2015,06,29,02,39,19.70
2015,06,29,02,40,19.70
2015,06,29,02,41,19.70
2015,06,29,02,42,19.70
2015,06,29,02,43,19.70
2015,06,29,02,44,19.70
2015,06,29,02,45,19.70
2015,06,29,02,46,19.70
2015,06,29,02,47,19.70
2015,06,29,02,48,19.70
2015,06,29,02,49,19.80
2015,06,29,02,50,19.80
2015,06,29,02,51,19.80
2015,06,29,02,52,19.80
2015,06,29,02,53,19.80
2015,06,29,02,54,19.80
2015,06,29,02,55,19.90
2015,06,29,02,56,19.90
2015,06,29,02,57,19.90
2015,06,29,02,58,19.90
2015,06,29,02,59,19.90
2015,06,29,03,00,20.00
2015,06,29,03,01,20.00
2015,06,29,03,02,20.10
2015,06,29,03,03,20.10
2015,06,29,03,04,20.10
2015,06,29,03,05,20.10
2015,06,29,03,06,20.10
2015,06,29,03,07,20.10
2015,06,29,03,08,20.00
2015,06,29,03,09,20.10
2015,06,29,03,10,20.10
2015,06,29,03,11,20.00
2015,06,29,03,12,20.00
2015,06,29,03,13,20.00
2015,06,29,03,14,20.00
2015,06,29,03,15,20.00
2015,06,29,03,16,20.00
2015,06,29,03,17,20.00
2015,06,29,03,18,20.00
2015,06,29,03,19,20.10
2015,06,29,03,20,20.10
2015,06,29,03,21,20.10
2015,06,29,03,22,20.10
2015,06,29,03,23,20.20
2015,06,29,03,24,20.20
2015,06,29,03,25,20.30
2015,06,29,03,26,20.30
2015,06,29,03,27,20.40
2015,06,29,03,28,20.40
2015,06,29,03,29,20.50
2015,06,29,03,30,20.50
2015,06,29,03,31,20.50
2015,06,29,03,32,20.60
2015,06,29,03,33,20.60
2015,06,29,03,34,20.60
2015,06,29,03,35,20.60
2015,06,29,03,36,20.50
2015,06,29,03,37,20.50
2015,06,29,03,38,20.50
2015,06,29,03,39,20.60
2015,06,29,03,40,20.60
2015,06,29,03,41,20.60
2015,06,29,03,42,20.60
2015,06,29,03,43,20.70
2015,06,29,03,44,20.70
2015,06,29,03,45,20.70
2015,06,29,03,46,20.70
2015,06,29,03,47,20.60
2015,06,29,03,48,20.60
2015,06,29,03,49,20.60
2015,06,29,03,50,20.60
2015,06,29,03,51,20.60
2015,06,29,03,52,20.50
2015,06,29,03,53,20.50
2015,06,29,03,54,20.50
2015,06,29,03,55,20.50
2015,06,29,03,56,20.40
2015,06,29,03,57,20.40
2015,06,29,03,58,20.40
2015,06,29,03,59,20.30
2015,06,29,04,00,20.30
2015,06,29,04,01,20.30
2015,06,29,04,02,20.20
2015,06,29,04,03,20.20
2015,06,29,04,04,20.10
2015,06,29,04,05,20.10
2015,06,29,04,06,20.00
2015,06,29,04,07,20.00
2015,06,29,04,08,19.90
2015,06,29,04,09,19.80
2015,06,29,04,10,19.80
2015,06,29,04,11,19.70
2015,06,29,04,12,19.60
2015,06,29,04,13,19.60
2015,06,29,04,14,19.50
2015,06,29,04,15,19.40
2015,06,29,04,16,19.40
2015,06,29,04,17,19.30
2015,06,29,04,18,19.30
2015,06,29,04,19,19.20
2015,06,29,04,20,19.20
2015,06,29,04,21,19.10
2015,06,29,04,22,19.10
2015,06,29,04,23,19.00
2015,06,29,04,24,19.00
2015,06,29,04,25,19.00
2015,06,29,04,26,18.90
2015,06,29,04,27,18.90
2015,06,29,04,28,18.90
2015,06,29,04,29,18.80
2015,06,29,04,30,18.80
2015,06,29,04,31,18.80
2015,06,29,04,32,18.80
2015,06,29,04,33,18.80
2015,06,29,04,34,18.70
2015,06,29,04,35,18.70
2015,06,29,04,36,18.70
2015,06,29,04,37,18.70
2015,06,29,04,38,18.70
2015,06,29,04,39,18.60
2015,06,29,04,40,18.60
2015,06,29,04,41,18.60
2015,06,29,04,42,18.60
2015,06,29,04,43,18.60
2015,06,29,04,44,18.60
2015,06,29,04,45,18.60
2015,06,29,04,46,18.50
2015,06,29,04,47,18.50
2015,06,29,04,48,18.50
2015,06,29,04,49,18.50
2015,06,29,04,50,18.50
2015,06,29,04,51,18.50
2015,06,29,04,52,18.50
2015,06,29,04,53,18.50
2015,06,29,04,54,18.50
2015,06,29,04,55,18.40
2015,06,29,04,56,18.40
2015,06,29,04,57,18.40
2015,06,29,04,58,18.40
2015,06,29,04,59,18.40
2015,06,29,05,00,18.40
2015,06,29,05,01,18.30
2015,06,29,05,02,18.30
2015,06,29,05,03,18.30
2015,06,29,05,04,18.30
2015,06,29,05,05,18.30
2015,06,29,05,06,18.30
2015,06,29,05,07,18.30
2015,06,29,05,08,18.30
2015,06,29,05,09,18.20
2015,06,29,05,10,18.20
2015,06,29,05,11,18.20
2015,06,29,05,12,18.20
2015,06,29,05,13,18.20
2015,06,29,05,14,18.20
2015,06,29,05,15,18.20
2015,06,29,05,16,18.20
2015,06,29,05,17,18.20
2015,06,29,05,18,18.20
2015,06,29,05,19,18.20
2015,06,29,05,20,18.20
2015,06,29,05,21,18.10
2015,06,29,05,22,18.10
2015,06,29,05,23,18.10
2015,06,29,05,24,18.10
2015,06,29,05,25,18.10
2015,06,29,05,26,18.10
2015,06,29,05,27,18.10
2015,06,29,05,28,18.10
2015,06,29,05,29,18.10
2015,06,29,05,30,18.10
2015,06,29,05,31,18.10
2015,06,29,05,32,18.10
2015,06,29,05,33,18.00
2015,06,29,05,34,18.00
2015,06,29,05,35,18.10
2015,06,29,05,36,18.10
2015,06,29,05,37,18.10
2015,06,29,05,38,18.10
2015,06,29,05,39,18.10
2015,06,29,05,40,18.10
2015,06,29,05,41,18.20
2015,06,29,05,42,18.20
2015,06,29,05,43,18.20
2015,06,29,05,44,18.20
2015,06,29,05,45,18.20
2015,06,29,05,46,18.20
2015,06,29,05,47,18.20
2015,06,29,05,48,18.20
2015,06,29,05,49,18.20
2015,06,29,05,50,18.20
2015,06,29,05,51,18.30
2015,06,29,05,52,18.30
2015,06,29,05,53,18.30
2015,06,29,05,54,18.30
2015,06,29,05,55,18.30
2015,06,29,05,56,18.30
2015,06,29,05,57,18.30
2015,06,29,05,58,18.30
2015,06,29,05,59,18.30
2015,06,29,06,00,18.30
2015,06,29,06,01,18.30
2015,06,29,06,02,18.30
2015,06,29,06,03,18.30
2015,06,29,06,04,18.30
2015,06,29,06,05,18.30
2015,06,29,06,06,18.30
2015,06,29,06,07,18.30
2015,06,29,06,08,18.30
2015,06,29,06,09,18.30
2015,06,29,06,10,18.30
2015,06,29,06,11,18.30
2015,06,29,06,12,18.30
2015,06,29,06,13,18.30
2015,06,29,06,14,18.30
2015,06,29,06,15,18.30
2015,06,29,06,16,18.30
2015,06,29,06,17,18.30
2015,06,29,06,18,18.30
2015,06,29,06,19,18.20
2015,06,29,06,20,18.20
2015,06,29,06,21,18.10
2015,06,29,06,22,18.10
2015,06,29,06,23,18.00
2015,06,29,06,24,17.90
2015,06,29,06,25,17.90
2015,06,29,06,26,17.80
2015,06,29,06,27,17.80
2015,06,29,06,28,17.70
2015,06,29,06,29,17.70
2015,06,29,06,30,17.60
2015,06,29,06,31,17.60
2015,06,29,06,32,17.50
2015,06,29,06,33,17.50
2015,06,29,06,34,17.40
2015,06,29,06,35,17.40
2015,06,29,06,36,17.40
2015,06,29,06,37,17.40
2015,06,29,06,38,17.30
2015,06,29,06,39,17.30
2015,06,29,06,40,17.20
2015,06,29,06,41,17.20
2015,06,29,06,42,17.20
2015,06,29,06,43,17.20
2015,06,29,06,44,17.20
2015,06,29,06,45,17.20
2015,06,29,06,46,17.20
2015,06,29,06,47,17.20
2015,06,29,06,48,17.20
2015,06,29,06,49,17.20
2015,06,29,06,50,17.20
2015,06,29,06,51,17.20
2015,06,29,06,52,17.20
2015,06,29,06,53,17.20
2015,06,29,06,54,17.30
2015,06,29,06,55,17.30
2015,06,29,06,56,17.30
2015,06,29,06,57,17.30
2015,06,29,06,58,17.30
2015,06,29,06,59,17.30
2015,06,29,07,00,17.40
2015,06,29,07,01,17.40
2015,06,29,07,02,17.40
2015,06,29,07,03,17.50
2015,06,29,07,04,17.50
2015,06,29,07,05,17.50
2015,06,29,07,06,17.60
2015,06,29,07,07,17.60
2015,06,29,07,08,17.70
2015,06,29,07,09,17.70
2015,06,29,07,10,17.80
2015,06,29,07,11,17.80
2015,06,29,07,12,17.80
2015,06,29,07,13,17.90
2015,06,29,07,14,18.00
2015,06,29,07,15,18.00
2015,06,29,07,16,18.10
2015,06,29,07,17,18.10
2015,06,29,07,18,18.20
2015,06,29,07,19,18.30
2015,06,29,07,20,18.40
2015,06,29,07,21,18.50
2015,06,29,07,22,18.60
2015,06,29,07,23,18.70
2015,06,29,07,24,18.80
2015,06,29,07,25,18.90
2015,06,29,07,26,19.00
2015,06,29,07,27,19.10
2015,06,29,07,28,19.20
2015,06,29,07,29,19.30
2015,06,29,07,30,19.30
2015,06,29,07,31,19.40
2015,06,29,07,32,19.50
2015,06,29,07,33,19.60
2015,06,29,07,34,19.70
2015,06,29,07,35,19.70
2015,06,29,07,36,19.80
2015,06,29,07,37,19.90
2015,06,29,07,38,19.90
2015,06,29,07,39,19.90
2015,06,29,07,40,19.90
2015,06,29,07,41,19.90
2015,06,29,07,42,19.90
2015,06,29,07,43,19.80
2015,06,29,07,44,19.80
2015,06,29,07,45,19.80
2015,06,29,07,46,19.70
2015,06,29,07,47,19.70
2015,06,29,07,48,19.70
2015,06,29,07,49,19.70
2015,06,29,07,50,19.70
2015,06,29,07,51,19.60
2015,06,29,07,52,19.60
2015,06,29,07,53,19.60
2015,06,29,07,54,19.60
2015,06,29,07,55,19.60
2015,06,29,07,56,19.60
2015,06,29,07,57,19.70
2015,06,29,07,58,19.70
2015,06,29,07,59,19.70
2015,06,29,08,00,19.70
2015,06,29,08,01,19.70
2015,06,29,08,02,19.70
2015,06,29,08,03,19.80
2015,06,29,08,04,19.80
2015,06,29,08,05,19.90
2015,06,29,08,06,19.90
2015,06,29,08,07,19.90
2015,06,29,08,08,20.00
2015,06,29,08,09,20.10
2015,06,29,08,10,20.10
2015,06,29,08,11,20.20
2015,06,29,08,12,20.20
2015,06,29,08,13,20.30
2015,06,29,08,14,20.40
2015,06,29,08,15,20.40
2015,06,29,08,16,20.50
2015,06,29,08,17,20.60
2015,06,29,08,18,20.60
2015,06,29,08,19,20.70
2015,06,29,08,20,20.80
2015,06,29,08,21,20.90
2015,06,29,08,22,20.90
2015,06,29,08,23,21.00
2015,06,29,08,24,21.00
2015,06,29,08,25,21.10
2015,06,29,08,26,21.20
2015,06,29,08,27,21.30
2015,06,29,08,28,21.30
2015,06,29,08,29,21.40
2015,06,29,08,30,21.50
2015,06,29,08,31,21.50
2015,06,29,08,32,21.60
2015,06,29,08,33,21.70
2015,06,29,08,34,21.80
2015,06,29,08,35,21.90
2015,06,29,08,36,22.00
2015,06,29,08,37,22.10
2015,06,29,08,38,22.20
2015,06,29,08,39,22.30
2015,06,29,08,40,22.30
2015,06,29,08,41,22.40
2015,06,29,08,42,22.40
2015,06,29,08,43,22.40
2015,06,29,08,44,22.40
2015,06,29,08,45,22.40
2015,06,29,08,46,22.20
2015,06,29,08,47,22.00
2015,06,29,08,48,21.90
2015,06,29,08,49,21.70
2015,06,29,08,50,21.50
2015,06,29,08,51,21.30
2015,06,29,08,52,21.20
2015,06,29,08,53,21.10
2015,06,29,08,54,21.10
2015,06,29,08,55,21.00
2015,06,29,08,56,20.90
2015,06,29,08,57,20.80
2015,06,29,08,58,20.70
2015,06,29,08,59,20.60
2015,06,29,09,00,20.60
2015,06,29,09,01,20.50
2015,06,29,09,02,20.30
2015,06,29,09,03,20.30
2015,06,29,09,04,20.10
2015,06,29,09,05,20.10
2015,06,29,09,06,20.00
2015,06,29,09,07,19.90
2015,06,29,09,08,19.90
2015,06,29,09,09,19.80
2015,06,29,09,10,19.70
2015,06,29,09,11,19.60
2015,06,29,09,12,19.50
2015,06,29,09,13,19.30
2015,06,29,09,14,19.20
2015,06,29,09,15,19.10
2015,06,29,09,16,19.00
2015,06,29,09,17,19.00
2015,06,29,09,18,18.90
2015,06,29,09,19,18.90
2015,06,29,09,20,18.80
2015,06,29,09,21,18.80
2015,06,29,09,22,18.80
2015,06,29,09,23,18.70
2015,06,29,09,24,18.70
2015,06,29,09,25,18.70
2015,06,29,09,26,18.70
2015,06,29,09,27,18.60
2015,06,29,09,28,18.60
2015,06,29,09,29,18.60
2015,06,29,09,30,18.60
2015,06,29,09,31,18.60
2015,06,29,09,32,18.60
2015,06,29,09,33,18.60
2015,06,29,09,34,18.60
2015,06,29,09,35,18.60
2015,06,29,09,36,18.60
2015,06,29,09,37,18.60
2015,06,29,09,38,18.50
2015,06,29,09,39,18.60
2015,06,29,09,40,18.60
2015,06,29,09,41,18.60
2015,06,29,09,42,18.60
2015,06,29,09,43,18.60
2015,06,29,09,44,18.60
2015,06,29,09,45,18.60
2015,06,29,09,46,18.70
2015,06,29,09,47,18.70
2015,06,29,09,48,18.70
2015,06,29,09,49,18.70
2015,06,29,09,50,18.80
2015,06,29,09,51,18.90
2015,06,29,09,52,19.00
2015,06,29,09,53,19.00
2015,06,29,09,54,19.10
2015,06,29,09,55,19.20
2015,06,29,09,56,19.30
2015,06,29,09,57,19.30
2015,06,29,09,58,19.40
2015,06,29,09,59,19.40
2015,06,29,10,00,19.50
2015,06,29,10,01,19.60
2015,06,29,10,02,19.60
2015,06,29,10,03,19.70
2015,06,29,10,04,19.80
2015,06,29,10,05,19.80
2015,06,29,10,06,19.90
2015,06,29,10,07,20.10
2015,06,29,10,08,20.20
2015,06,29,10,09,20.30
2015,06,29,10,10,20.40
2015,06,29,10,11,20.50
2015,06,29,10,12,20.60
2015,06,29,10,13,20.80
2015,06,29,10,14,20.90
2015,06,29,10,15,21.10
2015,06,29,10,16,21.20
2015,06,29,10,17,21.30
2015,06,29,10,18,21.40
2015,06,29,10,19,21.50
2015,06,29,10,20,21.70
2015,06,29,10,21,21.80
2015,06,29,10,22,21.90
2015,06,29,10,23,21.90
2015,06,29,10,24,22.00
2015,06,29,10,25,22.10
2015,06,29,10,26,22.20
2015,06,29,10,27,22.30
2015,06,29,10,28,22.30
2015,06,29,10,29,22.40
2015,06,29,10,30,22.40
2015,06,29,10,31,22.50
2015,06,29,10,32,22.50
2015,06,29,10,33,22.60
2015,06,29,10,34,22.60
2015,06,29,10,35,22.70
2015,06,29,10,36,22.70
2015,06,29,10,37,22.80
2015,06,29,10,38,22.80
2015,06,29,10,39,22.90
2015,06,29,10,40,22.90
2015,06,29,10,41,23.00
2015,06,29,10,42,23.10
2015,06,29,10,43,23.20
2015,06,29,10,44,23.20
2015,06,29,10,45,23.30
2015,06,29,10,46,23.30
2015,06,29,10,47,23.30
2015,06,29,10,48,23.30
2015,06,29,10,49,23.40
2015,06,29,10,50,23.40
2015,06,29,10,51,23.50
2015,06,29,10,52,23.50
2015,06,29,10,53,23.60
2015,06,29,10,54,23.70
2015,06,29,10,55,23.80
2015,06,29,10,56,23.80
2015,06,29,10,57,23.90
2015,06,29,10,58,24.00
2015,06,29,10,59,24.00
2015,06,29,11,00,24.10
2015,06,29,11,01,24.20
2015,06,29,11,02,24.20
2015,06,29,11,03,24.30
2015,06,29,11,04,24.30
2015,06,29,11,05,24.40
2015,06,29,11,06,24.40
2015,06,29,11,07,24.40
2015,06,29,11,08,24.50
2015,06,29,11,09,24.50
2015,06,29,11,10,24.60
2015,06,29,11,11,24.60
2015,06,29,11,12,24.60
2015,06,29,11,13,24.60
2015,06,29,11,14,24.60
2015,06,29,11,15,24.60
2015,06,29,11,16,24.70
2015,06,29,11,17,24.70
2015,06,29,11,18,24.80
2015,06,29,11,19,24.90
2015,06,29,11,20,24.90
2015,06,29,11,21,25.00
2015,06,29,11,22,25.00
2015,06,29,11,23,24.90
2015,06,29,11,24,24.90
2015,06,29,11,25,24.90
2015,06,29,11,26,25.00
2015,06,29,11,27,24.90
2015,06,29,11,28,24.90
2015,06,29,11,29,24.90
2015,06,29,11,30,24.80
2015,06,29,11,31,24.80
2015,06,29,11,32,24.70
2015,06,29,11,33,24.60
2015,06,29,11,34,24.60
2015,06,29,11,35,24.60
2015,06,29,11,36,24.60
2015,06,29,11,37,24.50
2015,06,29,11,38,24.50
2015,06,29,11,39,24.40
2015,06,29,11,40,24.40
2015,06,29,11,41,24.30
2015,06,29,11,42,24.30
2015,06,29,11,43,24.40
2015,06,29,11,44,24.40
2015,06,29,11,45,24.40
2015,06,29,11,46,24.40
2015,06,29,11,47,24.40
2015,06,29,11,48,24.40
2015,06,29,11,49,24.40
2015,06,29,11,50,24.40
2015,06,29,11,51,24.40
2015,06,29,11,52,24.40
2015,06,29,11,53,24.40
2015,06,29,11,54,24.40
2015,06,29,11,55,24.40
2015,06,29,11,56,24.30
2015,06,29,11,57,24.30
2015,06,29,11,58,24.40
2015,06,29,11,59,24.40
2015,06,29,12,00,24.50
2015,06,29,12,01,24.60
2015,06,29,12,02,24.60
2015,06,29,12,03,24.70
2015,06,29,12,04,24.80
2015,06,29,12,05,24.90
2015,06,29,12,06,24.90
2015,06,29,12,07,25.00
2015,06,29,12,08,25.00
2015,06,29,12,09,25.10
2015,06,29,12,10,25.20
2015,06,29,12,11,25.20
2015,06,29,12,12,25.30
2015,06,29,12,13,25.40
2015,06,29,12,14,25.50
2015,06,29,12,15,25.60
2015,06,29,12,16,25.60
2015,06,29,12,17,25.70
2015,06,29,12,18,25.70
2015,06,29,12,19,25.80
2015,06,29,12,20,25.90
2015,06,29,12,21,25.90
2015,06,29,12,22,26.00
2015,06,29,12,23,25.90
2015,06,29,12,24,25.90
2015,06,29,12,25,25.90
2015,06,29,12,26,25.80
2015,06,29,12,27,25.80
2015,06,29,12,28,25.80
2015,06,29,12,29,25.80
2015,06,29,12,30,25.90
2015,06,29,12,31,25.90
2015,06,29,12,32,25.90
2015,06,29,12,33,25.90
2015,06,29,12,34,25.80
2015,06,29,12,35,25.80
2015,06,29,12,36,25.70
2015,06,29,12,37,25.50
2015,06,29,12,38,25.40
2015,06,29,12,39,25.20
2015,06,29,12,40,25.00
2015,06,29,12,41,24.80
2015,06,29,12,42,24.60
2015,06,29,12,43,24.40
2015,06,29,12,44,24.30
2015,06,29,12,45,24.20
2015,06,29,12,46,24.00
2015,06,29,12,47,23.90
2015,06,29,12,48,23.80
2015,06,29,12,49,23.80
2015,06,29,12,50,23.80
2015,06,29,12,51,23.80
2015,06,29,12,52,23.80
2015,06,29,12,53,23.90
2015,06,29,12,54,23.90
2015,06,29,12,55,24.00
2015,06,29,12,56,24.10
2015,06,29,12,57,24.10
2015,06,29,12,58,24.20
2015,06,29,12,59,24.30
2015,06,29,13,00,24.30
2015,06,29,13,01,24.40
2015,06,29,13,02,24.50
2015,06,29,13,03,24.60
2015,06,29,13,04,24.60
2015,06,29,13,05,24.60
2015,06,29,13,06,24.60
2015,06,29,13,07,24.60
2015,06,29,13,08,24.60
2015,06,29,13,09,24.70
2015,06,29,13,10,24.70
2015,06,29,13,11,24.70
2015,06,29,13,12,24.80
2015,06,29,13,13,24.90
2015,06,29,13,14,25.00
2015,06,29,13,15,25.20
2015,06,29,13,16,25.30
2015,06,29,13,17,25.40
2015,06,29,13,18,25.40
2015,06,29,13,19,25.50
2015,06,29,13,20,25.60
2015,06,29,13,21,25.70
2015,06,29,13,22,25.70
2015,06,29,13,23,25.80
2015,06,29,13,24,25.90
2015,06,29,13,25,25.90
2015,06,29,13,26,25.90
2015,06,29,13,27,25.90
2015,06,29,13,28,25.90
2015,06,29,13,29,25.90
2015,06,29,13,30,25.80
2015,06,29,13,31,25.80
2015,06,29,13,32,25.70
2015,06,29,13,33,25.60
2015,06,29,13,34,25.50
2015,06,29,13,35,25.50
2015,06,29,13,36,25.40
2015,06,29,13,37,25.40
2015,06,29,13,38,25.30
2015,06,29,13,39,25.30
2015,06,29,13,40,25.30
2015,06,29,13,41,25.30
2015,06,29,13,42,25.30
2015,06,29,13,43,25.30
2015,06,29,13,44,25.20
2015,06,29,13,45,25.20
2015,06,29,13,46,25.20
2015,06,29,13,47,25.20
2015,06,29,13,48,25.30
2015,06,29,13,49,25.30
2015,06,29,13,50,25.30
2015,06,29,13,51,25.30
2015,06,29,13,52,25.30
2015,06,29,13,53,25.40
2015,06,29,13,54,25.40
2015,06,29,13,55,25.40
2015,06,29,13,56,25.50
2015,06,29,13,57,25.50
2015,06,29,13,58,25.60
2015,06,29,13,59,25.70
2015,06,29,14,00,25.80
2015,06,29,14,01,25.90
2015,06,29,14,02,26.00
2015,06,29,14,03,26.10
2015,06,29,14,04,26.30
2015,06,29,14,05,26.40
2015,06,29,14,06,26.50
2015,06,29,14,07,26.70
2015,06,29,14,08,26.80
2015,06,29,14,09,26.90
2015,06,29,14,10,27.10
2015,06,29,14,11,27.20
2015,06,29,14,12,27.30
2015,06,29,14,13,27.30
2015,06,29,14,14,27.40
2015,06,29,14,15,27.50
2015,06,29,14,16,27.60
2015,06,29,14,17,27.70
2015,06,29,14,18,27.80
2015,06,29,14,19,27.90
2015,06,29,14,20,27.90
2015,06,29,14,21,28.00
2015,06,29,14,22,28.00
2015,06,29,14,23,28.10
2015,06,29,14,24,28.20
2015,06,29,14,25,28.20
2015,06,29,14,26,28.20
2015,06,29,14,27,28.30
2015,06,29,14,28,28.30
2015,06,29,14,29,28.40
2015,06,29,14,30,28.40
2015,06,29,14,31,28.40
2015,06,29,14,32,28.50
2015,06,29,14,33,28.50
2015,06,29,14,34,28.50
2015,06,29,14,35,28.50
2015,06,29,14,36,28.50
2015,06,29,14,37,28.40
2015,06,29,14,38,28.30
2015,06,29,14,39,28.30
2015,06,29,14,40,28.30
2015,06,29,14,41,28.20
2015,06,29,14,42,28.20
2015,06,29,14,43,28.20
2015,06,29,14,44,28.20
2015,06,29,14,45,28.30
2015,06,29,14,46,28.30
2015,06,29,14,47,28.30
2015,06,29,14,48,28.30
2015,06,29,14,49,28.30
2015,06,29,14,50,28.30
2015,06,29,14,51,28.30
2015,06,29,14,52,28.30
2015,06,29,14,53,28.30
2015,06,29,14,54,28.40
2015,06,29,14,55,28.40
2015,06,29,14,56,28.40
2015,06,29,14,57,28.40
2015,06,29,14,58,28.40
2015,06,29,14,59,28.40
2015,06,29,15,00,28.40
2015,06,29,15,01,28.30
2015,06,29,15,02,28.30
2015,06,29,15,03,28.30
2015,06,29,15,04,28.30
2015,06,29,15,05,28.30
2015,06,29,15,06,28.30
2015,06,29,15,07,28.30
2015,06,29,15,08,28.30
2015,06,29,15,09,28.30
2015,06,29,15,10,28.40
2015,06,29,15,11,28.40
2015,06,29,15,12,28.50
2015,06,29,15,13,28.50
2015,06,29,15,14,28.50
2015,06,29,15,15,28.60
2015,06,29,15,16,28.60
2015,06,29,15,17,28.70
2015,06,29,15,18,28.70
2015,06,29,15,19,28.70
2015,06,29,15,20,28.70
2015,06,29,15,21,28.70
2015,06,29,15,22,28.80
2015,06,29,15,23,28.80
2015,06,29,15,24,28.80
2015,06,29,15,25,28.80
2015,06,29,15,26,28.80
2015,06,29,15,27,28.80
2015,06,29,15,28,28.80
2015,06,29,15,29,28.70
2015,06,29,15,30,28.70
2015,06,29,15,31,28.70
2015,06,29,15,32,28.70
2015,06,29,15,33,28.80
2015,06,29,15,34,28.80
2015,06,29,15,35,28.80
2015,06,29,15,36,28.80
2015,06,29,15,37,28.90
2015,06,29,15,38,28.90
2015,06,29,15,39,28.80
2015,06,29,15,40,28.80
2015,06,29,15,41,28.80
2015,06,29,15,42,28.70
2015,06,29,15,43,28.70
2015,06,29,15,44,28.70
2015,06,29,15,45,28.70
2015,06,29,15,46,28.70
2015,06,29,15,47,28.60
2015,06,29,15,48,28.50
2015,06,29,15,49,28.40
2015,06,29,15,50,28.30
2015,06,29,15,51,28.20
2015,06,29,15,52,28.10
2015,06,29,15,53,28.10
2015,06,29,15,54,28.00
2015,06,29,15,55,27.90
2015,06,29,15,56,27.90
2015,06,29,15,57,27.90
2015,06,29,15,58,27.80
2015,06,29,15,59,27.90
2015,06,29,16,00,27.80
2015,06,29,16,01,27.80
2015,06,29,16,02,27.80
2015,06,29,16,03,27.90
2015,06,29,16,04,27.90
2015,06,29,16,05,27.80
2015,06,29,16,06,27.90
2015,06,29,16,07,27.90
2015,06,29,16,08,27.90
2015,06,29,16,09,28.00
2015,06,29,16,10,28.00
2015,06,29,16,11,28.10
2015,06,29,16,12,28.20
2015,06,29,16,13,28.30
2015,06,29,16,14,28.40
2015,06,29,16,15,28.40
2015,06,29,16,16,28.40
2015,06,29,16,17,28.30
2015,06,29,16,18,28.30
2015,06,29,16,19,28.20
2015,06,29,16,20,28.10
2015,06,29,16,21,28.00
2015,06,29,16,22,27.80
2015,06,29,16,23,27.70
2015,06,29,16,24,27.60
2015,06,29,16,25,27.50
2015,06,29,16,26,27.40
2015,06,29,16,27,27.40
2015,06,29,16,28,27.40
2015,06,29,16,29,27.40
2015,06,29,16,30,27.40
2015,06,29,16,31,27.50
2015,06,29,16,32,27.60
2015,06,29,16,33,27.60
2015,06,29,16,34,27.60
2015,06,29,16,35,27.60
2015,06,29,16,36,27.70
2015,06,29,16,37,27.70
2015,06,29,16,38,27.70
2015,06,29,16,39,27.70
2015,06,29,16,40,27.70
2015,06,29,16,41,27.80
2015,06,29,16,42,27.80
2015,06,29,16,43,27.80
2015,06,29,16,44,27.90
2015,06,29,16,45,27.90
2015,06,29,16,46,27.90
2015,06,29,16,47,27.90
2015,06,29,16,48,27.90
2015,06,29,16,49,28.00
2015,06,29,16,50,27.90
2015,06,29,16,51,28.00
2015,06,29,16,52,27.90
2015,06,29,16,53,27.90
2015,06,29,16,54,27.90
2015,06,29,16,55,27.90
2015,06,29,16,56,27.90
2015,06,29,16,57,27.90
2015,06,29,16,58,27.90
2015,06,29,16,59,28.00
2015,06,29,17,00,28.00
2015,06,29,17,01,28.10
2015,06,29,17,02,28.10
2015,06,29,17,03,28.10
2015,06,29,17,04,28.20
2015,06,29,17,05,28.20
2015,06,29,17,06,28.20
2015,06,29,17,07,28.20
2015,06,29,17,08,28.30
2015,06,29,17,09,28.30
2015,06,29,17,10,28.30
2015,06,29,17,11,28.30
2015,06,29,17,12,28.20
2015,06,29,17,13,28.20
2015,06,29,17,14,28.20
2015,06,29,17,15,28.20
2015,06,29,17,16,28.10
2015,06,29,17,17,28.10
2015,06,29,17,18,28.20
2015,06,29,17,19,28.20